• In Belarus
  • List of Countries
  • For 7 days
  • Water Temperature
  • Satellite Maps
  • Weather Map
  • Weather Widgets
  • user-avatar
    Login

    Hourly Weather Kastoria

    Today, 21 November, Wednesday

    Time Temperature Precipitation Wind Pressure Humidity
    00:00 +12°C° 1.3 mm 2 mps 699 mmHg 96%
    01:00 +10°C° 0 mm 2 mps 698 mmHg 97%
    02:00 +10°C° 1.2 mm 2 mps 698 mmHg 97%
    03:00 +10°C° 1.2 mm 2 mps 697 mmHg 97%
    04:00 +10°C° 1.2 mm 2 mps 697 mmHg 96%
    05:00 +10°C° 0.4 mm 2 mps 697 mmHg 96%
    06:00 +11°C° 0.4 mm 1 mps 697 mmHg 96%
    07:00 +11°C° 0.4 mm 1 mps 697 mmHg 95%
    08:00 +12°C° 0.1 mm 2 mps 698 mmHg 90%
    09:00 +13°C° 0.1 mm 2 mps 698 mmHg 85%
    10:00 +14°C° 0.1 mm 2 mps 698 mmHg 80%
    11:00 +14°C° 0 mm 2 mps 699 mmHg 75%
    12:00 +14°C° 0 mm 3 mps 699 mmHg 71%
    13:00 +16°C° 0 mm 3 mps 699 mmHg 66%
    14:00 +15°C° 0 mm 2 mps 699 mmHg 70%
    15:00 +14°C° 0 mm 2 mps 699 mmHg 74%
    16:00 +13°C° 0 mm 2 mps 699 mmHg 78%
    17:00 +12°C° 0 mm 2 mps 700 mmHg 81%
    18:00 +10°C° 0 mm 2 mps 700 mmHg 84%
    19:00 +9°C° 0 mm 2 mps 700 mmHg 87%
    20:00 +9°C° 0 mm 2 mps 701 mmHg 88%
    21:00 +9°C° 0 mm 2 mps 701 mmHg 90%
    22:00 +9°C° 0 mm 2 mps 701 mmHg 91%
    23:00 +8°C° 0 mm 2 mps 701 mmHg 92%

    Tomorrow, 22 November, Thursday

    Time Temperature Precipitation Wind Pressure Humidity
    00:00 +9°C° 0 mm 1 mps 702 mmHg 92%
    01:00 +9°C° 0 mm 1 mps 702 mmHg 93%
    02:00 +9°C° 0 mm 1 mps 702 mmHg 93%
    03:00 +9°C° 0 mm 1 mps 702 mmHg 93%
    04:00 +9°C° 0 mm 1 mps 702 mmHg 93%
    05:00 +9°C° 0 mm 1 mps 702 mmHg 93%
    06:00 +9°C° 0 mm 1 mps 702 mmHg 93%
    07:00 +9°C° 0 mm 1 mps 703 mmHg 93%
    08:00 +10°C° 0 mm 1 mps 703 mmHg 87%
    09:00 +12°C° 0 mm 1 mps 703 mmHg 81%
    10:00 +13°C° 0 mm 1 mps 704 mmHg 75%
    11:00 +14°C° 0 mm 1 mps 704 mmHg 71%
    12:00 +14°C° 0 mm 1 mps 703 mmHg 68%
    13:00 +15°C° 0 mm 1 mps 703 mmHg 64%
    14:00 +14°C° 0.1 mm 1 mps 703 mmHg 68%
    15:00 +13°C° 0.1 mm 1 mps 704 mmHg 73%
    16:00 +12°C° 0.1 mm 1 mps 704 mmHg 77%
    17:00 +11°C° 0 mm 1 mps 704 mmHg 80%
    18:00 +11°C° 0 mm 1 mps 704 mmHg 83%
    19:00 +10°C° 0 mm 1 mps 705 mmHg 86%
    20:00 +10°C° 0 mm 1 mps 705 mmHg 87%
    21:00 +8°C° 0 mm 0 mps 705 mmHg 88%
    22:00 +8°C° 0 mm 0 mps 706 mmHg 89%
    23:00 +8°C° 0 mm 0 mps 706 mmHg 89%

    Day after tomorrow, 23 November, Friday

    Time Temperature Precipitation Wind Pressure Humidity
    00:00 +8°C° 0 mm 0 mps 706 mmHg 90%
    01:00 +8°C° 0 mm 0 mps 706 mmHg 90%
    02:00 +7°C° 0 mm 0 mps 706 mmHg 91%
    03:00 +7°C° 0 mm 0 mps 706 mmHg 92%
    04:00 +7°C° 0 mm 0 mps 706 mmHg 92%
    05:00 +7°C° 0 mm 0 mps 706 mmHg 92%
    06:00 +7°C° 0 mm 0 mps 707 mmHg 92%
    07:00 +7°C° 0 mm 0 mps 707 mmHg 92%
    08:00 +8°C° 0 mm 0 mps 707 mmHg 87%
    09:00 +9°C° 0 mm 0 mps 708 mmHg 81%
    10:00 +12°C° 0 mm 1 mps 708 mmHg 76%
    11:00 +12°C° 0 mm 1 mps 708 mmHg 72%
    12:00 +13°C° 0 mm 1 mps 708 mmHg 69%
    13:00 +14°C° 0 mm 1 mps 708 mmHg 66%
    14:00 +13°C° 0 mm 1 mps 707 mmHg 69%
    15:00 +12°C° 0 mm 1 mps 707 mmHg 73%
    16:00 +12°C° 0 mm 1 mps 707 mmHg 77%
    17:00 +11°C° 0 mm 1 mps 707 mmHg 80%
    18:00 +10°C° 0 mm 1 mps 708 mmHg 84%
    19:00 +9°C° 0 mm 1 mps 708 mmHg 87%
    20:00 +9°C° 0 mm 1 mps 708 mmHg 89%
    21:00 +9°C° 0 mm 1 mps 708 mmHg 91%
    22:00 +8°C° 0 mm 1 mps 708 mmHg 93%
    23:00 +8°C° 0 mm 1 mps 708 mmHg 93%

    24 November, Saturday

    Time Temperature Precipitation Wind Pressure Humidity
    00:00 +8°C° 0 mm 1 mps 708 mmHg 94%
    01:00 +8°C° 0 mm 1 mps 708 mmHg 94%
    02:00 +7°C° 0 mm 1 mps 707 mmHg 94%
    03:00 +7°C° 0 mm 1 mps 707 mmHg 93%
    04:00 +7°C° 0 mm 1 mps 707 mmHg 93%
    05:00 +7°C° 0 mm 1 mps 707 mmHg 92%
    06:00 +7°C° 0 mm 1 mps 707 mmHg 92%
    07:00 +7°C° 0 mm 1 mps 707 mmHg 91%
    08:00 +9°C° 0 mm 1 mps 707 mmHg 86%
    09:00 +9°C° 0 mm 2 mps 707 mmHg 81%
    10:00 +10°C° 0 mm 2 mps 707 mmHg 76%
    11:00 +10°C° 0 mm 2 mps 707 mmHg 73%
    12:00 +12°C° 0 mm 2 mps 706 mmHg 70%
    13:00 +13°C° 0 mm 1 mps 706 mmHg 67%
    14:00 +12°C° 0 mm 1 mps 705 mmHg 71%
    15:00 +11°C° 0 mm 1 mps 705 mmHg 75%
    16:00 +11°C° 0 mm 1 mps 705 mmHg 79%
    17:00 +10°C° 0 mm 1 mps 705 mmHg 81%
    18:00 +10°C° 0 mm 1 mps 705 mmHg 84%
    19:00 +9°C° 0 mm 1 mps 705 mmHg 86%
    20:00 +9°C° 0.2 mm 1 mps 705 mmHg 87%
    21:00 +9°C° 0.2 mm 1 mps 705 mmHg 88%
    22:00 +9°C° 0.2 mm 1 mps 705 mmHg 89%
    23:00 +9°C° 0.1 mm 1 mps 704 mmHg 89%

    25 November, Sunday

    Time Temperature Precipitation Wind Pressure Humidity
    00:00 +9°C° 0.1 mm 1 mps 704 mmHg 90%
    01:00 +8°C° 0.1 mm 1 mps 704 mmHg 91%
    02:00 +8°C° 0 mm 1 mps 703 mmHg 91%
    03:00 +8°C° 0 mm 1 mps 703 mmHg 91%
    04:00 +8°C° 0 mm 1 mps 703 mmHg 92%
    05:00 +8°C° 0 mm 1 mps 703 mmHg 92%
    06:00 +8°C° 0 mm 1 mps 703 mmHg 92%
    07:00 +8°C° 0 mm 1 mps 703 mmHg 91%
    08:00 +9°C° 0 mm 1 mps 703 mmHg 85%
    09:00 +11°C° 0 mm 1 mps 703 mmHg 79%
    10:00 +13°C° 0 mm 1 mps 703 mmHg 72%
    11:00 +14°C° 0 mm 2 mps 702 mmHg 69%
    12:00 +14°C° 0 mm 2 mps 702 mmHg 66%
    13:00 +15°C° 0 mm 2 mps 701 mmHg 63%
    14:00 +14°C° 0.1 mm 2 mps 701 mmHg 68%
    15:00 +13°C° 0.1 mm 2 mps 701 mmHg 74%
    16:00 +12°C° 0.1 mm 1 mps 700 mmHg 80%
    17:00 +12°C° 0.2 mm 1 mps 700 mmHg 83%
    18:00 +12°C° 0.2 mm 1 mps 700 mmHg 86%
    19:00 +11°C° 0.2 mm 1 mps 700 mmHg 89%
    20:00 +11°C° 0.5 mm 1 mps 700 mmHg 90%
    21:00 +11°C° 0.5 mm 1 mps 699 mmHg 91%
    22:00 +10°C° 0.5 mm 1 mps 699 mmHg 93%
    23:00 +10°C° 1.1 mm 1 mps 698 mmHg 93%

    26 November, Monday

    Time Temperature Precipitation Wind Pressure Humidity
    00:00 +10°C° 1.1 mm 1 mps 698 mmHg 94%
    01:00 +10°C° 1.1 mm 1 mps 697 mmHg 95%
    02:00 +10°C° 1.5 mm 1 mps 697 mmHg 95%
    03:00 +10°C° 1.5 mm 1 mps 696 mmHg 95%
    04:00 +10°C° 1.5 mm 1 mps 696 mmHg 95%
    05:00 +10°C° 2.6 mm 1 mps 695 mmHg 95%
    06:00 +10°C° 2.6 mm 1 mps 695 mmHg 95%
    07:00 +9°C° 2.6 mm 1 mps 695 mmHg 95%
    08:00 +9°C° 2.7 mm 1 mps 695 mmHg 94%
    09:00 +8°C° 2.7 mm 2 mps 695 mmHg 93%
    10:00 +9°C° 2.7 mm 2 mps 695 mmHg 92%
    11:00 +9°C° 0.2 mm 2 mps 695 mmHg 88%
    12:00 +10°C° 0.2 mm 2 mps 695 mmHg 83%
    13:00 +12°C° 0.2 mm 2 mps 695 mmHg 78%
    14:00 +12°C° 0 mm 2 mps 695 mmHg 79%
    15:00 +10°C° 0 mm 2 mps 696 mmHg 80%
    16:00 +10°C° 0 mm 2 mps 696 mmHg 80%
    17:00 +9°C° 0 mm 2 mps 696 mmHg 83%
    18:00 +8°C° 0 mm 2 mps 696 mmHg 85%
    19:00 +8°C° 0 mm 2 mps 696 mmHg 88%
    20:00 +7°C° 0 mm 2 mps 697 mmHg 88%
    21:00 +7°C° 0 mm 2 mps 697 mmHg 89%
    22:00 +7°C° 0 mm 2 mps 697 mmHg 90%
    23:00 +8°C° 0 mm 1 mps 697 mmHg 90%
    Show more